www.pogodaiklimat.ru

Погода и климат >> Архив погоды >> Словакия >> Прешов


ПОГОДА в Прешове

  • Прогноз погоды в Прешове
  • Монитор погоды в Прешове

АРХИВ ПОГОДЫ в Прешове

Время (UTC), дата Ветер
(напр.,м/с)
 
Видим.   Явления Облачность Т
(С)
Тd
(С)
f
(%)
Тe
(С)
Тes
(С)
Комфортность P
(гПа)
Po
(гПа)
Тmin
(С)
Tmax
(С)
R
(мм)
R24
(мм)
S
(см)
16 13.09 З 2 35 км 4/0 2000 м
[Ac trans]
+23.4 +9.8 42 +25 +25 комфорт 1025.7 990.3
17 13.09 ЮВ 3 30 км 8/8 1500 м
[Cu hum Ac trans]
+19.8 +12.3 62 +22 +22 комфорт 1026.3 990.5
18 13.09 С 1 25 км 9/9 1500 м
[Sc Ac trans]
+20.8 +11.7 56 +24 +24 комфорт 1026.7 991.0 +25.9
19 13.09 СВ 1 20 км 9/0 2000 м
[As trans]
+19.1 +12.2 64 +21 +21 комфорт 1027.1 991.2
20 13.09 В 2 20 км 9/9 1500 м
[Sc diur, vesp]
+16.0 +11.2 73 +16 +16 1027.6 991.3
21 13.09 В 1 40 км н/о +13.2 +10.9 86 +13 +13 1028.1 991.4
22 13.09 Ю 2 45 км н/о +13.5 +12.1 91 +13 +13 1028.0 991.4
23 13.09 нст 1 50 км н/о +14.4 +12.6 89 +15 +15 1028.2 991.7
00 14.09 нст 1 45 км н/о +13.2 +11.6 90 +13 +13 1028.5 991.8
01 14.09 штиль 0 45 км н/о +14.3 +12.8 91 +14 +14 1028.3 991.8
02 14.09 нст 3 55 км н/о +16.9 +13.8 82 +17 +17 1028.0 991.8
03 14.09 СВ 4 15 км {ливн. осадки} 10/5 870 м
[Frnb As op]
+16.6 +13.0 79 +16 +16 1028.6 992.4
04 14.09 С 6 15 км 10/8 870 м
[Sc As op]
+15.1 +11.1 77 +13 +13 1029.4 992.9
05 14.09 СВ 6 15 км 8/8 540 м
[Sc]
+14.0 +10.8 81 +12 +12 1030.4 993.7
06 14.09 С 5 20 км {ливн. осадки} 8/5 700 м
[Sc Ac trans]
+14.3 +8.7 69 +13 +13 1031.1 994.4 +12.8 0.0
07 14.09 С 5 30 км 4/3 900 м
[Cu hum Ac trans]
+14.8 +7.6 62 +13 +15 1031.4 994.8
08 14.09 С 5 30 км 4/4 1050 м
[Cu hum]
+15.9 +7.4 57 +15 +17 1031.2 994.7
09 14.09 С 5 30 км 3/3 1200 м
[Cu hum]
+16.8 +6.0 49 +16 +19 1031.3 994.9
10 14.09 С 5 30 км 1/1 1500 м
[Cu hum]
+16.9 +3.9 42 +16 +21 1031.3 994.9
11 14.09 С 4 30 км 1/1 1500 м
[Cu hum]
+17.5 +3.0 38 +17 +23 1030.8 994.5
12 14.09 С 4 30 км 4/0
[Ac trans]
+18.3 +3.8 38 +18 +23 1030.4 994.2
13 14.09 С 4 30 км 4/0
[Ac trans]
+18.7 +4.5 39 +19 +22 1030.0 993.9
15 14.09 С 3 30 км 4/0
[Ci fib]
+17.7 +3.6 39 +18 +19 1029.3 993.1
16 14.09 С 2 30 км 1/0
[Ci fib]
+16.5 +3.6 42 +17 +17 1029.4 993.0
17 14.09 С 3 30 км 3/0
[Ci fib]
+15.0 +4.1 48 +14 +14 1029.8 993.2
18 14.09 СВ 3 30 км 3/0
[Ci fib]
+13.5 +4.6 55 +13 +13 1030.6 993.8 +18.8
19 14.09 СВ 3 25 км 1/0
[Ci fib]
+11.0 +5.5 69 +9 +9 1031.0 993.9
20 14.09 СВ 2 25 км 1/0
[Ci fib]
+9.6 +5.0 73 +8 +8 1031.1 993.8
21 14.09 В 3 55 км н/о +8.0 +5.1 82 +5 +5 1031.6 994.1
22 14.09 В 2 50 км н/о +7.0 +4.8 86 +5 +5 1031.0 993.4
23 14.09 нст 1 35 км н/о +7.0 +5.2 88 +6 +6 1031.0 993.4
00 15.09 нст 1 40 км н/о +6.5 +5.0 90 +5 +5 1031.0 993.3
01 15.09 нст 2 40 км н/о +5.9 +4.7 92 +3 +3 1030.5 992.7
02 15.09 Ю 2 45 км н/о +5.4 +4.2 92 +3 +3 1029.8 992.0
03 15.09 Ю 2 20 км 3/0
[Ci fib]
+5.4 +4.4 93 +3 +3 1030.1 992.3
04 15.09 штиль 0 20 км 1/0
[Ci fib]
+5.1 +4.1 93 +4 +4 1029.8 991.9
05 15.09 Ю 3 20 км 1/0
[Ci fib]
+5.9 +5.0 94 +2 +3 1029.4 991.7
06 15.09 ЮЗ 3 25 км ясно +8.4 +6.5 88 +6 +7 1028.7 991.3 +4.6
07 15.09 ЮЗ 2 30 км ясно +11.1 +6.8 75 +10 +14 1028.5 991.5
08 15.09 Ю 2 30 км 1/0
[Ci fib]
+13.9 +7.0 63 +14 +20 1027.5 990.9
09 15.09 В 3 35 км 1/0
[Ci fib]
+16.9 +7.3 53 +17 +24 1026.4 990.2
10 15.09 Ю 5 35 км 1/0
[Ci fib]
+18.1 +6.6 47 +18 +23 1025.5 989.5
11 15.09 Ю 5 35 км 1/0
[Ci fib]
+19.1 +7.2 46 +19 +25 1024.6 988.7
12 15.09 ЮВ 6 35 км 1/0
[Ci fib]
+19.7 +6.5 42 +20 +23 1023.9 988.1
13 15.09 Ю 6 35 км 3/0
[Cs]
+20.6 +6.6 40 +21 +24 комфорт 1022.8 987.2
14 15.09 Ю 7 35 км 1/0
[Cs]
+20.5 +6.1 39 +21 +22 комфорт 1021.8 986.2
15 15.09 ЮВ 7 35 км 1/0
[Cs]
+20.0 +7.1 43 +20 +21 1020.9 985.3
16 15.09 Ю 6 35 км 1/0
[Cs]
+19.0 +5.8 42 +19 +19 1020.4 984.7
17 15.09 Ю 5 30 км ясно +16.9 +4.9 45 +16 +16 1020.3 984.3
18 15.09 ЮВ 5 25 км ясно +16.5 +4.6 45 +16 +16 1020.5 984.4 +21.0
19 15.09 З 2 20 км 1/0
[Cs]
+14.2 +5.6 56 +14 +14 1020.7 984.4
20 15.09 ЮЗ 3 15 км 1/0
[Cs]
+12.9 +5.8 62 +12 +12 1020.9 984.4
21 15.09 Ю 3 60 км н/о +10.0 +6.0 76 +8 +8 1020.9 984.0
22 15.09 Ю 2 50 км н/о +9.1 +6.7 85 +7 +7 1021.1 984.1
23 15.09 Ю 2 50 км н/о +8.7 +7.0 89 +7 +7 1021.2 984.2
00 16.09 Ю 3 30 км н/о +7.9 +6.7 92 +5 +5 1021.1 984.0
01 16.09 Ю 2 35 км н/о +7.8 +7.0 95 +6 +6 1020.8 983.7
02 16.09 Ю 2 35 км н/о +7.4 +6.6 95 +5 +5 1020.5 983.3
03 16.09 Ю 3 15 км 3/0
[Ci fib]
+7.3 +6.6 95 +4 +4 1020.3 983.1
04 16.09 Ю 2 15 км 4/0
[Ac trans Ci fib]
+6.7 +6.0 95 +4 +4 1020.3 983.0
05 16.09 Ю 1 20 км 5/0
[Ac trans Ci fib]
+7.0 +6.4 96 +6 +6 1020.2 983.0
06 16.09 СВ 2 20 км 5/0
[Ac trans Ci fib]
+9.0 +8.2 95 +7 +8 1020.2 983.2 +6.6
07 16.09 СЗ 1 20 км 5/3 540 м
[Cu med, cong Ci ing]
+12.7 +9.5 81 +13 +15 1019.6 983.1
08 16.09 СВ 1 20 км 5/3 750 м
[Cu med, cong Ci ing]
+15.4 +9.8 69 +16 +21 1019.1 983.0
09 16.09 нст 1 20 км 5/3 900 м
[Sc Ci fib]
+17.7 +10.1 61 +19 +25 1018.2 982.4
10 16.09 СВ 3 20 км 6/3 870 м
[Sc Ci fib]
+18.0 +10.1 60 +18 +23 1017.6 981.9
11 16.09 СВ 3 20 км 6/0
[Ac trans Cs]
+19.2 +10.5 57 +20 +27 1016.6 981.1
12 16.09 Ю 4 25 км 6/0
[Ac trans Cs]
+22.2 +9.7 45 +24 +29 комфорт 1015.4 980.2
13 16.09 СВ 3 25 км 6/4 1500 м
[Cu hum Ac trans Cs]
+20.5 +11.4 56 +23 +25 комфорт 1014.7 979.4
14 16.09 СВ 3 25 км 6/3 1500 м
[Cu hum Ac trans Cs]
+20.5 +10.9 54 +23 +24 комфорт 1014.3 979.0
15 16.09 СВ 2 25 км 8/1 1500 м
[Cu hum Cs]
+20.0 +11.8 59 +22 +24 комфорт 1013.8 978.5
16 16.09 СВ 2 25 км 9/9 1410 м
[Sc Ac trans]
+19.2 +12.7 66 +21 +21 комфорт 1013.5 978.1
17 16.09 СВ 4 25 км 9/5 1500 м
[Sc As trans Cs]
+18.2 +13.5 74 +18 +18 1013.7 978.2
18 16.09 В 3 15 км 9/4 1500 м
[Sc Ac As]
+17.7 +12.6 72 +18 +18 1014.5 978.9 +22.7
19 16.09 СВ 3 15 км 10/3 1500 м
[Sc Ac As]
+17.1 +12.4 74 +17 +17 1015.0 979.3
20 16.09 СВ 4 15 км 10/3 1320 м
[Sc Ac As]
+16.9 +12.0 73 +16 +16 1014.6 978.9
21 16.09 СВ 4 40 км н/о +15.6 +12.9 84 +15 +15 1014.3 978.4
22 16.09 СВ 4 н/о н/о +15.0 +13.0 88 +14 +14 1014.4 978.5
23 16.09 СВ 4 н/о н/о +14.3 +12.7 90 +13 +13 1014.2 978.2
00 17.09 нст 4 30 км н/о +14.0 +12.0 88 +12 +12 1014.0 977.9
01 17.09 СВ 5 29 км н/о +13.6 +12.0 90 +12 +12 1013.9 977.8
02 17.09 СВ 6 30 км н/о +13.3 +11.5 89 +11 +11 1013.8 977.7
03 17.09 СВ 5 10 км слаб. дождь 10/10 540 м
[Sc]
+12.3 +11.4 94 +10 +10 1014.2 977.9
04 17.09 СВ 5 15 км в посл. час дождь 10/10 540 м
[Sc]
+12.0 +11.2 95 +9 +9 1014.0 977.7
05 17.09 СВ 5 10 км 10/10 300 м
[St]
+11.5 +10.4 93 +9 +9 1014.8 978.4
06 17.09 СВ 3 10 км {дождь} 10/10 300 м
[St]
+11.5 +10.2 92 +10 +10 1015.2 978.8 +11.4 0.5
07 17.09 СВ 3 10 км 10/10 300 м
[Sc]
+11.9 +10.0 88 +10 +10 1015.2 978.8
08 17.09 С 3 15 км 9/9 420 м
[Sc]
+12.8 +8.7 76 +11 +12 1015.1 978.8
09 17.09 СВ 2 20 км 9/9 700 м
[Sc]
+13.5 +8.8 73 +13 +14 1014.8 978.6
10 17.09 С 1 20 км 9/9 630 м
[Sc]
+15.3 +9.9 70 +16 +17 1014.1 978.2
11 17.09 СВ 2 20 км 9/9 630 м
[Sc]
+15.3 +10.5 73 +15 +16 1013.6 977.7
12 17.09 С 2 20 км 9/9 630 м
[Sc]
+14.9 +9.9 72 +15 +15 1013.4 977.4
14 17.09 нст 1 20 км 4/4 840 м
[Cu Sc]
+18.2 +9.8 58 +20 +22 1010.8 975.3
15 17.09 штиль 0 20 км 8/8 960 м
[Sc]
+18.1 +9.7 58 +18 +19 1010.6 975.1
16 17.09 В 3 20 км 5/5 960 м
[Sc]
+16.0 +10.1 68 +16 +16 1010.2 974.5
17 17.09 В 2 20 км 5/5 1200 м
[Sc]
+13.2 +10.6 84 +12 +12 1010.6 974.5
18 17.09 В 2 20 км 4/4 1500 м
[Sc]
+11.1 +9.4 89 +10 +10 1011.2 974.8 +18.6
19 17.09 нст 1 20 км 4/4 1500 м
[Sc]
+10.5 +9.2 92 +10 +10 1011.2 974.8
20 17.09 Ю 2 20 км 5/5 1500 м
[Sc]
+10.5 +9.4 93 +9 +9 1011.5 975.1
21 17.09 нст 2 50 км н/о +11.5 +7.0 74 +10 +10 1011.2 974.9
22 17.09 нст 1 55 км н/о +9.7 +5.9 77 +9 +9 1011.2 974.6
23 17.09 С 5 60 км н/о +11.8 +6.9 72 +9 +9 1012.1 975.8
00 18.09 СЗ 5 >70 км н/о +10.7 +5.2 69 +8 +8 1013.1 976.6
01 18.09 нст 4 >70 км н/о +10.0 +4.0 66 +8 +8 1013.8 977.2
02 18.09 нст 4 65 км н/о +9.8 +1.9 58 +7 +7 1014.1 977.4
03 18.09 СЗ 4 20 км 3/3 1000 м
[Sc]
+9.1 +2.0 61 +6 +6 1014.7 977.9
04 18.09 СЗ 6 20 км 4/4 630 м
[Sc]
+8.6 +2.8 67 +5 +5 1015.8 978.9
05 18.09 нст 2 20 км 4/4 1200 м
[Sc]
+8.5 +1.2 60 +7 +7 1016.1 979.2
06 18.09 З 6 20 км 5/5 1440 м
[Sc]
+10.5 -0.6 46 +8 +8 1017.0 980.3 +8.3
07 18.09 З 6 20 км 5/5 1200 м
[Sc]
+10.9 +0.3 48 +8 +9 1017.9 981.2
08 18.09 З 6 20 км 5/5 1080 м
[Cu Sc]
+11.9 +1.2 48 +9 +11 1019.0 982.4
09 18.09 З 7 20 км 5/5 1080 м
[Cu Sc]
+11.7 +1.1 48 +9 +10 1019.4 982.8

 

Местоположение метеостанции Прешов (Словакия): широта 49.03 долгота 21.32 высота над уровнем моря 307 м.

В архиве по умолчанию представлена погода в Прешове за последнюю неделю. Архивные данные за месяц целиком и за предыдущие месяцы, начиная с января 2011 года, Вы можете получить, выбрав интересующий диапазон дат из раскрывающегося списка и нажав кнопку "Ввод!".


*Определитесь, кто Вы:
робот инопланетянин человек

Внимание! Время в таблицах - всемирное. Для получения местного времени необходимо прибавить поправку, которая равна 1 ч.

Смотрите также архив погоды в соседних городах и на ближайших метеорологических станциях:

Погода в Стропкове (Словакия) (32 км)
Погода на Станции Kojsovska Hola (Словакия) (37 км)
Погода в Кошице (Словакия) (41 км)
Погода в Мильхостове (Словакия) (50 км)
Погода в Каменице-над-Сирочью (Словакия) (51 км)
Погода в Попрад-Гановце (Словакия) (73 км)
Погода в Попраде (Словакия) (78 км)
Погода в Кросно (Польша) (79 км)
Погода в Новы-Сонч (Польша) (80 км)
Погода на Ломницком Штите (Словакия) (82 км)

Пояснения к столбцам:

Ветер - указаны скорость ветра в м/с - средняя за 10 мин, порывы в срок и между сроками (в фигурных скобках) и направление, откуда дует ветер: С - северный, СВ - северо-восточный, В - восточный, ЮВ - юго-восточный, Ю - южный, ЮЗ - юго-западный, З - западный, СЗ - северо-западный.
Видимость - горизонтальная дальность видимости в метрах или километрах. При видимости от 1 до 10 км при отсутствии осадков обычно наблюдается дымка, при ухудшении видимости до 1 км и менее - туман. В сухую погоду видимость может ухудшаться дымом, пылью или мглою.
Явления - указаны атмосферные явления, наблюдавшиеся в срок или в последний час перед сроком; фигурными скобками обозначены явления, наблюдавшиеся между сроками (за 1-3 часа до срока); квадратными скобками обозначены град или гололедные отложения с указанием их диаметра в мм.
Облачность - указаны через наклонную черту общая и нижняя облачность в баллах и высота нижней границы облаков в метрах; квадратными скобками обозначены формы облаков: Ci - перистые, Cs - перисто-слоистые, Cc - перисто-кучевые, Ac - высококучевые, As - высокослоистые, Sc - слоисто-кучевые, Ns - слоисто-дождевые, Cu - кучевые, Cb - кучево-дождевые. Подробнее классификацию облаков см. в Атласе облаков (PDF).
T - Температура воздуха - температура, измеренная на высоте 2 м над землей.
Td - Температура точки росы - температура, при понижении до которой содержащийся в воздухе водяной пар достигнет насыщения.
f - Относительная влажность воздуха - влажноcть воздуха, измеренная на высоте 2 м над землей.
Te - Эффективная температура - температура, которую ощущает одетый по сезону человек в тени. Характеристика душности погоды. При расчете учитывается влияние влажности воздуха и скорости ветра на теплоощущения человека.
Tes - Эффективная температура на солнце - температура, которую ощущает человек, с поправкой на солнечный нагрев. Характеристика знойности погоды. Зависит от высоты солнца над горизонтом, облачности и скорости ветра. Ночью, в пасмурную погоду, а также при ветре 12 м/с и более поправка равна нулю.
P - Атмосферное давление - приведенное к уровню моря атмосферное давление.
Po - Атмосферное давление - измеренное на уровне метеостанции атмосферное давление.
Tmin - Минимальная температура - минимум температуры воздуха на высоте 2 м над землей.
Tmax - Максимальная температура - максимум температуры воздуха на высоте 2 м над землей.
R - Количество осадков - Количество выпавших осадков за период времени, мм. При наведении курсора мыши на число - период времени, за который выпало указанное количество осадков.
R24 - Количество осадков - Количество выпавших осадков за 24 часа, мм.
S - Снежный покров - Высота снежного покрова, см. При наведении курсора мыши на число - состояние снежного покрова и степень покрытия местности в баллах.